Regional Weather Roundup
Issued by NWS Sioux Falls, SD

Home | Current Version | Previous Version | Text Only | Print | Product List | Glossary On
Versions: 1 2 3 4 5 6 7 8 9 10 11 12 13 14 15 16 17 18 19 20 21 22 23 24 25 26 27 28 29 30 31 32 33 34 35 36 37 38 39 40 41 42 43 44 45 46 47 48 49 50
000
ASUS43 KFSD 011610
RWRFSD

WEATHER ROUNDUP FOR SE SOUTH DAKOTA/SW MINNESOTA/NW IOWA
NATIONAL WEATHER SERVICE SIOUX FALLS SD
1100 AM CDT TUE SEP 01 2015

NOTE: "FAIR" INDICATES FEW OR NO CLOUDS BELOW 12,000 FEET WITH NO
SIGNIFICANT WEATHER AND OR OBSTRUCTIONS TO VISIBILITY.


SDZ038>040-050-052>070-011700-
SOUTHEAST SOUTH DAKOTA

CITY           SKY/WX    TMP DP  RH WIND       PRES   REMARKS
BROOKINGS      CLOUDY    73  68  83 SE6       29.93R
CHAMBERLAIN    PTSUNNY   71  67  87 NE3       29.86F
HURON          CLOUDY    71  68  90 S10       29.91R FOG
MADISON        FAIR      68  68 100 CALM      29.94R
MITCHELL       CLOUDY    70  68  93 CALM      29.90F FOG
SIOUX FALLS    CLOUDY    75  69  81 S6        29.90R
WINNER         LGT RAIN  74  67  78 S7        29.88F
YANKTON        PTSUNNY   75  66  73 S3        29.88R
$$

MNZ071-072-080-081-089-090-097-098-011700-
SOUTHWEST MINNESOTA

CITY           SKY/WX    TMP DP  RH WIND       PRES   REMARKS
FAIRMONT       SUNNY     77  66  69 S8        29.92S
JACKSON        MOSUNNY   79  70  73 S5        29.93S
LUVERNE        PTSUNNY   75  68  78 S5        29.91S
MARSHALL       CLOUDY    73  66  78 S7        29.92R
MONTEVIDEO     PTSUNNY   79  70  73 S6        29.91S
PIPESTONE      CLOUDY    73  70  88 SE5       29.92S
REDWOOD FALLS  CLOUDY    75  68  78 CALM      29.90S
TRACY          CLOUDY    74  69  82 S3        29.92S
WINDOM         PTSUNNY   81  70  69 CALM      29.92S
WORTHINGTON    PTSUNNY   73  66  78 S6        29.92S
$$

IAZ001>003-012>014-020>022-031-032-NEZ013-014-SDZ071-011700-
NORTHWEST IOWA

CITY           SKY/WX    TMP DP  RH WIND       PRES   REMARKS
CHEROKEE       PTSUNNY   78  70  76 S12       29.92S
DENISON        MOSUNNY   79  70  73 S13G18    29.94S
ESTHERVILLE    MOSUNNY   75  69  81 S10       29.93S
LE MARS        MOSUNNY   77  68  73 S10G18    29.92R
ORANGE CITY    MOSUNNY   77  70  78 S9        29.92R
SHELDON        PTSUNNY   77  68  73 S7        29.91S
SIOUX CITY     PTSUNNY   80  66  62 S12       29.92R
SPENCER        MOSUNNY   77  68  73 SW8       29.93S
STORM LAKE     PTSUNNY   77  70  78 SW12G17   29.95S
$$

ABBREVIATIONS USED IN REMARKS
   TC - TEMPERATURE IN CELSIUS
  WCI - WIND CHILL INDEX
   HX - HEAT INDEX
  VSB - VISIBILITY



USA.gov is the U.S. government's official web portal to all federal, state and local government web resources and services.